Theta_e
337 339 340 342 342 343 342 344 345 346 347 349 350 350 350 351 351 350 349 349 349 347 347 346 345 345 346 345 344 345 346 348 351 351 354 356 360 361 363 363 362 363 361 358 357 363 358 359 360 359 358 357 356 354 355 358 363 360 359 358 358 354 354 355 355 347 345 346 345 344 347 348 351 358 351 350 349 351 352 352 354 354 355 355 356
335 335 338 340 341 340 341 343 346 343 345 348 348 349 350 350 350 350 348 348 348 348 348 347 346 346 346 345 344 345 347 348 348 351 353 357 361 362 363 362 361 363 363 360 360 359 357 359 359 358 358 356 356 359 363 365 357 357 356 356 354 355 353 354 356 347 344 340 341 342 344 343 348 353 351 351 351 351 351 351 352 351 352 353 355
331 334 336 338 339 338 340 342 343 344 345 347 348 348 349 349 349 350 348 347 348 348 348 346 347 349 348 347 346 345 348 351 349 353 357 357 360 362 363 362 361 362 363 363 359 358 358 358 358 357 356 361 358 354 355 353 355 355 356 355 354 353 354 358 358 348 346 345 344 342 336 336 344 343 345 346 348 350 351 349 350 349 350 353 355
328 331 333 336 337 337 339 341 342 343 345 346 347 347 348 349 349 349 348 347 347 349 350 348 349 349 350 349 348 348 347 353 354 356 356 358 359 361 362 362 361 362 363 363 360 359 358 358 358 358 357 359 355 354 354 355 355 357 357 361 354 350 349 351 361 351 351 349 342 338 335 334 334 338 340 345 344 345 347 348 349 349 350 351 354
327 329 333 335 335 336 338 340 342 342 344 345 346 346 348 348 348 349 348 347 348 352 351 349 351 349 351 351 353 352 352 351 351 352 354 357 358 359 360 361 361 361 363 363 362 359 359 358 358 358 357 357 355 354 355 356 357 358 359 359 356 352 350 351 354 361 354 351 350 345 339 335 334 337 337 343 341 345 345 344 347 349 348 350 352
328 329 332 334 334 336 338 340 341 342 344 345 346 347 348 348 348 349 349 348 348 351 350 350 351 347 347 346 344 345 345 346 346 347 351 354 356 359 360 362 361 361 362 362 363 361 359 358 358 358 358 359 360 357 357 357 356 358 358 358 357 354 355 350 350 357 356 360 352 348 349 340 342 342 338 337 344 346 344 347 349 345 345 347 352
329 330 332 332 334 335 337 338 340 341 344 346 346 346 347 348 348 349 349 349 349 350 350 352 348 347 347 347 346 344 344 346 349 351 352 355 358 358 359 361 361 360 362 362 362 364 360 359 358 358 359 359 365 359 358 357 357 357 359 358 358 360 355 353 349 349 352 355 358 359 354 354 347 345 339 339 336 342 342 342 342 343 341 341 343
328 329 330 332 334 335 335 338 340 342 344 345 345 346 346 347 348 348 349 351 350 351 350 351 348 347 347 347 348 346 346 347 349 351 354 358 357 358 358 360 361 361 361 360 361 364 362 360 359 359 359 359 363 362 359 358 359 358 361 360 357 361 357 355 350 351 350 350 357 354 355 356 349 347 344 340 337 334 338 341 342 343 342 340 342
328 328 329 331 333 335 336 337 340 342 344 344 344 345 346 347 349 349 349 350 350 351 350 350 350 348 348 347 347 349 349 349 353 355 355 359 356 357 357 358 360 360 360 360 360 362 366 362 360 359 359 359 365 363 361 360 359 358 357 359 360 358 357 356 356 352 351 350 352 353 350 348 345 346 346 348 344 335 335 335 338 343 344 343 341
328 329 330 332 334 335 337 339 340 342 344 345 345 345 346 347 348 348 348 349 350 351 351 350 350 351 347 347 347 347 351 351 352 353 353 356 355 355 356 356 358 359 359 359 359 361 364 364 361 360 360 360 364 363 362 361 360 359 359 359 360 359 358 358 357 355 353 355 353 354 351 351 348 347 345 343 339 338 337 335 337 337 341 346 347
327 328 330 332 334 335 336 337 339 341 343 344 344 344 346 346 347 347 348 349 351 350 349 349 350 349 347 347 347 346 348 349 350 350 352 353 353 354 355 356 357 358 359 359 359 360 361 365 362 361 361 364 365 364 363 362 360 360 360 361 362 360 357 357 361 361 358 357 356 356 355 351 349 347 347 346 340 340 338 336 337 339 341 341 348
329 327 329 331 333 333 335 336 338 339 341 342 343 344 345 346 347 346 347 348 349 351 349 349 350 349 349 348 347 347 348 348 349 349 350 352 353 353 354 355 355 356 357 358 358 360 361 363 365 363 363 362 361 363 363 362 361 361 361 361 360 359 360 361 358 357 356 355 354 356 355 354 353 351 350 351 346 344 339 338 338 342 346 343 345
332 327 328 330 331 331 333 336 337 338 339 341 342 343 345 346 346 345 346 347 348 350 349 349 350 350 349 348 348 349 348 349 350 350 351 352 352 352 352 353 353 353 355 355 357 359 361 361 362 362 362 363 363 361 361 361 361 361 360 359 359 360 360 360 358 356 357 357 356 357 355 353 353 353 351 350 347 344 341 340 342 341 344 344 349
336 328 328 329 331 332 333 335 337 337 338 340 341 343 344 345 346 345 345 347 348 349 350 349 350 351 351 350 349 351 348 348 349 350 351 352 352 352 353 353 353 353 354 355 358 359 361 362 363 362 363 363 364 362 361 361 361 360 360 359 359 360 360 360 360 359 360 360 359 358 357 356 355 354 354 351 347 343 344 340 344 344 342 343 345
337 331 328 329 331 332 333 335 336 337 338 340 341 343 344 344 345 345 345 346 347 348 349 349 350 351 352 352 350 350 350 349 349 350 351 351 352 352 353 354 354 354 355 357 360 360 361 362 362 362 362 361 363 363 364 362 362 361 362 360 361 360 360 361 361 360 360 360 359 358 358 358 357 358 356 355 351 349 347 346 346 343 343 338 342
337 335 329 330 331 332 334 335 336 337 338 340 341 343 344 344 345 345 345 346 346 348 349 349 350 351 352 352 351 352 354 351 351 353 351 352 352 353 353 354 355 355 356 358 359 361 360 361 362 362 362 361 361 362 362 362 361 360 359 361 360 363 361 361 361 360 360 361 360 359 358 357 358 356 357 358 355 353 350 349 350 347 344 340 340
336 336 332 330 331 332 334 335 336 337 337 339 341 343 344 344 344 344 345 346 346 348 348 349 350 351 352 353 352 353 352 350 350 351 351 351 353 353 354 354 355 356 355 358 358 360 361 361 361 361 361 361 361 362 361 362 361 361 359 359 360 360 363 361 360 360 361 360 360 359 360 359 359 360 360 360 360 358 354 352 353 354 348 345 340
337 336 334 334 332 332 334 335 336 337 337 338 341 343 345 345 345 344 345 345 346 347 348 349 349 350 351 352 352 353 353 351 351 351 352 351 352 353 354 354 354 355 356 357 359 359 360 364 361 361 361 361 362 362 362 361 361 359 358 359 360 361 360 362 362 361 362 361 362 361 359 358 359 359 360 360 362 361 358 355 354 351 352 349 345
336 335 334 336 336 335 334 335 336 338 339 339 341 343 344 345 345 345 345 346 346 347 349 350 350 350 351 352 353 352 353 352 351 353 353 352 352 352 353 354 354 356 358 358 358 358 358 359 361 360 360 361 362 362 363 361 360 359 358 358 359 361 361 361 361 362 361 362 361 360 359 358 359 359 359 358 361 363 360 358 357 353 350 354 348
336 335 335 337 340 339 337 337 337 337 340 341 341 343 343 345 346 345 346 347 347 347 350 349 350 350 351 352 353 353 354 352 352 352 352 352 353 353 353 353 354 356 356 356 357 357 358 357 358 359 359 360 361 362 362 362 361 360 360 359 359 359 359 360 360 360 360 361 360 359 359 359 359 358 359 357 358 361 362 361 359 356 352 351 351
335 336 336 338 340 342 341 341 342 343 344 344 343 343 343 344 346 346 345 345 346 347 348 350 350 350 351 351 351 352 353 354 352 352 352 352 353 355 354 355 355 354 355 354 355 357 358 358 357 359 358 360 361 361 362 362 361 360 360 360 360 360 359 359 360 359 358 358 359 357 358 358 358 357 358 357 356 357 359 359 359 358 355 352 352
335 336 337 339 341 343 342 341 343 343 344 344 345 347 346 344 345 347 347 347 347 347 348 350 351 350 350 350 351 352 353 354 353 352 352 352 352 353 354 355 354 354 355 354 354 355 357 358 357 358 359 359 360 361 361 361 360 359 359 358 359 359 359 359 358 358 358 357 358 356 356 356 357 356 356 356 357 355 354 354 355 356 356 356 355
335 336 337 340 340 342 343 341 341 342 342 346 348 347 346 347 347 347 347 347 349 349 349 350 351 351 350 351 351 351 352 353 353 352 352 352 352 352 354 353 353 353 355 355 354 354 355 357 358 358 358 358 360 360 361 360 360 359 359 359 359 359 358 357 357 357 357 357 356 356 356 356 355 355 356 355 356 356 355 354 354 354 354 354 355
337 336 337 339 341 341 341 340 339 339 340 343 345 347 348 348 349 349 348 349 351 351 351 351 351 351 352 351 351 351 352 352 352 352 352 352 352 352 354 352 352 353 352 354 355 354 354 356 357 358 357 358 358 359 360 360 360 359 359 359 359 359 358 358 357 357 357 357 356 356 355 355 355 354 355 355 355 354 355 356 354 355 354 354 354
335 335 337 338 339 339 339 340 339 339 341 342 344 346 346 346 351 351 351 352 353 353 352 351 351 351 352 351 351 351 351 351 352 352 352 352 352 352 352 352 352 351 352 352 354 354 354 354 354 356 357 357 357 358 358 358 359 360 359 359 359 359 358 358 358 358 359 358 356 355 356 356 356 354 354 354 355 355 355 354 354 355 354 354 354
333 334 336 337 338 339 339 339 340 342 343 343 344 346 345 344 347 350 351 352 353 354 352 351 352 351 351 350 351 351 351 351 351 351 352 352 352 352 351 352 352 352 351 351 351 352 353 353 354 355 357 358 358 357 358 358 358 358 359 359 359 359 358 358 357 356 356 357 356 356 355 356 354 353 354 354 356 355 355 352 353 353 354 353 353
333 333 335 336 336 338 339 340 341 343 344 344 344 346 346 345 346 349 352 352 351 352 352 351 351 351 350 350 350 350 350 351 352 352 352 352 352 351 351 350 351 351 350 349 349 350 352 352 353 354 354 355 356 356 356 357 357 358 358 358 357 357 357 357 357 356 356 355 354 354 355 355 355 355 354 354 355 355 353 353 354 354 353 352 351
332 332 332 333 335 338 339 340 341 342 344 345 346 346 347 348 348 349 351 351 351 351 351 351 351 350 350 350 350 351 351 351 351 352 352 352 351 350 350 351 351 350 349 349 348 348 348 351 351 352 354 355 355 355 356 356 356 356 356 355 356 356 355 356 356 356 355 355 355 354 353 354 355 356 355 355 355 354 355 353 354 354 353 351 349
330 331 332 332 334 336 338 339 340 342 343 343 344 344 346 348 348 348 350 350 351 350 349 349 348 348 348 348 350 350 351 351 352 351 351 351 349 349 349 348 349 349 348 349 349 348 348 347 349 350 351 353 353 353 354 354 354 355 355 354 354 354 354 354 354 354 355 355 354 354 354 354 356 359 357 356 357 357 354 353 354 354 353 351 351
329 331 332 333 334 335 335 336 338 340 340 341 341 341 343 344 346 346 346 348 347 345 344 343 343 344 346 348 348 347 346 347 349 348 348 350 350 349 347 346 346 346 347 348 347 347 346 346 346 348 349 349 350 352 353 346 349 355 354 353 354 354 354 354 354 354 353 353 353 353 354 359 360 362 361 355 349 350 355 355 355 356 354 353 351
328 331 333 334 334 334 334 334 335 335 336 336 338 340 342 342 343 344 345 347 347 344 344 344 343 343 344 346 346 346 346 346 347 346 345 344 346 349 350 349 348 347 346 347 348 347 348 346 344 344 345 346 347 348 343 336 336 340 354 355 353 354 354 354 353 353 353 353 353 353 354 355 359 361 362 358 353 348 348 348 350 354 358 355 352
326 329 331 331 331 332 333 333 334 335 335 335 335 337 337 338 340 340 342 342 342 342 342 343 344 344 346 345 345 345 346 346 346 345 344 344 346 348 350 350 349 348 349 349 349 348 348 349 347 345 343 344 346 345 334 332 333 332 340 354 354 353 352 352 352 352 352 352 352 352 352 352 354 355 356 358 356 353 347 346 344 345 346 348 352
324 326 327 329 329 329 330 331 332 333 333 334 333 332 331 333 334 336 339 340 341 341 340 340 341 342 342 344 346 346 346 346 346 347 346 345 345 344 345 347 350 351 351 351 350 350 350 351 351 349 345 344 345 339 332 330 330 330 330 341 351 353 352 351 352 352 352 352 353 353 352 352 352 357 359 358 358 357 350 345 343 343 344 342 337
318 320 322 324 326 328 329 330 330 332 332 333 332 331 330 330 330 330 330 332 334 337 340 339 340 340 340 341 342 344 344 345 346 347 347 348 346 345 346 347 348 351 351 351 351 352 352 352 353 353 353 352 350 345 332 328 327 327 328 333 345 348 350 351 352 352 351 352 352 352 353 352 353 354 356 356 356 356 356 355 355 354 353 352 347
319 319 320 321 322 322 323 324 326 328 329 329 328 326 327 327 326 325 326 326 329 330 331 333 333 335 337 338 339 340 340 341 342 344 345 345 346 347 347 350 352 352 349 351 352 352 352 353 353 354 353 352 352 339 328 326 324 323 325 331 343 344 346 348 350 352 353 353 353 353 353 352 353 354 355 354 354 353 353 352 351 350 350 351 350
317 318 319 321 321 321 321 322 325 325 325 326 326 327 326 326 327 325 325 325 325 326 328 330 329 329 329 331 332 332 331 330 330 332 334 336 338 340 341 346 349 349 350 350 353 353 353 353 354 354 353 353 353 334 328 328 325 323 324 337 342 344 345 346 347 350 351 354 354 354 354 354 354 354 353 343 349 355 353 352 350 351 351 350 349
317 318 318 319 321 321 322 323 322 322 322 322 322 321 319 318 318 319 320 322 322 322 324 326 327 327 328 329 329 328 328 327 326 326 327 329 330 334 337 341 345 347 349 352 352 353 355 354 353 353 352 352 353 340 326 321 319 320 329 340 341 343 344 344 345 347 349 350 350 352 353 352 352 353 347 332 329 341 347 347 347 346 347 346 347
313 314 315 316 317 319 321 320 320 320 319 319 319 318 317 317 317 317 317 318 319 319 321 323 324 325 326 327 327 327 326 326 325 325 326 328 330 333 335 337 339 343 346 348 351 353 354 354 355 354 354 353 354 347 327 321 319 317 327 341 340 340 341 342 342 343 344 345 346 348 351 354 352 352 335 324 324 339 344 344 344 343 342 343 345
313 313 314 315 317 318 318 318 317 316 317 318 318 317 316 316 317 316 317 316 317 319 319 320 321 323 325 326 328 328 327 327 327 328 329 328 328 331 334 335 337 340 346 347 349 349 351 351 353 353 355 355 355 349 323 320 320 319 331 343 345 345 344 345 345 345 347 347 348 348 348 349 347 340 318 319 319 333 341 342 343 342 341 342 344
312 313 314 316 318 316 315 315 314 315 316 317 317 318 318 315 315 315 315 316 317 318 319 320 321 322 323 323 325 326 326 325 324 324 326 329 332 332 331 333 336 340 344 348 349 349 348 349 350 352 351 351 352 353 346 322 317 317 319 339 345 346 346 346 346 347 348 349 349 350 349 335 321 319 318 315 315 315 334 341 341 341 341 342 346
313 315 318 313 313 313 313 314 315 316 316 316 315 315 315 316 315 314 315 316 317 319 319 319 319 320 320 321 323 324 323 325 325 324 326 328 328 328 329 331 334 337 343 345 345 346 347 349 349 348 347 346 351 351 348 323 318 315 317 327 344 345 345 345 346 346 346 346 347 348 349 339 320 316 314 312 311 313 319 332 337 340 342 344 343
317 317 314 311 311 311 312 312 314 316 316 315 314 314 314 313 312 313 314 317 317 318 318 319 318 319 320 319 321 324 324 323 325 325 324 324 327 328 328 327 328 333 336 339 341 346 347 340 339 338 336 340 345 347 344 327 317 317 313 314 339 344 338 344 344 345 345 345 345 345 344 339 322 317 313 309 307 309 314 326 333 322 323 322 334
312 312 314 312 310 310 310 310 312 313 314 315 314 313 313 312 311 312 315 317 318 317 317 317 318 317 319 319 321 322 321 322 323 324 323 323 325 326 326 326 325 326 327 328 330 331 333 333 332 335 337 338 340 343 335 338 322 313 314 314 312 324 321 341 341 341 342 342 343 342 343 338 320 310 306 306 307 308 316 326 317 314 315 317 326
311 312 312 312 309 310 310 310 311 312 312 313 314 313 314 311 311 314 315 317 316 316 315 315 317 316 316 318 319 320 321 319 321 322 323 321 322 324 325 324 324 325 324 325 327 328 327 327 327 327 328 331 334 339 338 333 330 313 310 310 313 312 317 335 340 340 341 341 340 340 337 318 308 303 305 308 309 312 320 312 309 312 315 320 329
310 312 312 310 309 309 309 309 310 311 311 311 312 312 312 310 311 315 315 315 316 316 315 314 314 314 315 315 317 319 319 319 319 320 320 321 321 322 321 323 323 322 323 323 325 327 325 324 324 322 324 325 327 331 332 333 331 327 315 313 315 315 315 316 333 337 339 338 326 313 308 308 311 310 310 313 318 321 316 314 313 315 324 333 335
309 309 310 310 309 309 309 308 309 310 310 312 310 310 310 310 312 314 314 315 316 316 315 313 313 314 314 315 316 318 317 318 319 318 319 321 320 319 321 321 320 321 322 324 323 326 325 324 321 321 323 323 326 327 329 331 332 331 327 319 317 320 329 327 326 327 324 318 314 313 312 313 317 321 332 335 335 337 325 321 320 325 337 339 340
308 310 311 309 309 308 309 309 308 308 309 309 309 310 311 312 312 312 314 316 316 315 314 313 312 313 314 316 316 318 317 316 317 317 317 317 319 318 318 320 319 319 320 322 321 322 321 322 321 319 321 323 324 325 328 329 328 326 326 325 324 326 324 323 326 328 324 324 325 327 326 318 316 317 318 318 320 328 335 340 343 343 344 344 343
308 309 309 308 308 307 308 308 307 307 308 308 308 308 309 310 311 312 313 314 315 315 311 310 311 312 314 317 317 320 317 315 315 316 315 316 317 317 317 317 318 319 319 319 319 319 319 318 318 318 319 320 322 324 328 327 324 323 321 321 322 323 322 321 323 323 320 323 326 326 326 335 337 338 339 341 342 343 343 342 345 346 346 346 346
306 307 308 307 308 308 308 308 307 306 307 307 308 308 308 309 310 311 312 313 313 312 311 310 311 312 313 318 317 316 315 315 315 315 316 316 318 317 317 318 318 323 320 317 317 317 319 317 317 317 318 319 321 321 325 313 316 309 313 316 318 319 317 318 320 310 317 324 329 331 333 334 336 336 337 338 339 340 341 342 343 343 344 348 348
307 308 308 309 310 308 308 307 305 306 307 307 307 308 309 309 309 309 310 311 312 311 309 308 311 311 314 316 316 315 315 316 314 314 314 316 319 313 314 317 317 320 314 309 310 317 317 316 316 319 320 319 319 322 314 303 299 298 298 299 301 299 298 307 310 307 314 324 329 330 332 333 334 334 334 333 331 331 330 330 331 329 335 337 337
307 306 306 307 307 309 309 307 306 308 307 307 306 307 307 308 308 308 308 308 309 309 308 307 310 310 314 315 315 314 314 314 313 313 314 315 315 316 306 305 309 312 307 300 299 300 303 308 318 317 317 313 312 307 302 300 297 296 295 295 296 296 295 295 297 309 324 327 329 329 330 332 332 331 328 327 328 327 327 327 327 328 329 330 333
Wind_Speed
10 10 10 10 10 9 7 7 8 8 7 8 8 8 8 8 8 8 7 7 7 6 6 6 5 5 2 4 4 4 4 4 3 3 2 2 2 3 3 3 3 3 3 4 4 3 3 3 3 3 2 2 1 1 0 2 2 2 1 1 3 5 3 3 3 3 5 4 3 4 4 2 3 4 5 4 5 5 4 4 4 4 4 4 4
7 7 9 9 8 9 8 7 8 9 8 8 9 9 8 8 9 7 7 7 7 8 7 6 4 5 4 5 3 4 4 4 4 3 3 2 3 3 3 3 4 4 4 4 4 4 4 3 3 3 3 2 2 1 1 2 3 3 3 3 2 2 3 3 4 2 4 2 3 5 4 6 2 1 2 4 4 4 4 4 4 5 5 5 3
9 10 10 10 11 10 9 9 9 10 11 11 10 9 8 8 7 7 7 7 7 7 7 6 4 4 4 4 5 3 2 3 3 2 3 3 3 3 3 3 4 3 4 4 4 4 4 4 4 3 3 2 2 1 3 3 3 3 3 3 4 1 1 1 4 3 2 1 1 2 3 6 5 4 2 3 3 3 3 4 4 5 7 4 3
11 11 12 11 11 10 9 9 9 8 8 8 8 9 7 7 7 8 8 7 7 7 6 5 5 5 3 4 4 4 4 3 2 2 3 3 3 3 3 3 3 3 3 3 3 3 4 4 3 3 3 2 2 1 1 2 2 2 2 2 1 3 4 3 3 3 1 2 4 2 2 1 4 5 5 5 2 3 3 4 3 5 5 4 2
11 10 11 11 11 12 12 11 9 9 9 10 9 9 7 9 8 8 8 8 7 7 7 6 5 4 3 3 3 3 4 4 3 2 3 3 3 3 4 3 3 3 3 4 4 4 3 3 3 3 2 2 2 1 1 0 1 1 1 1 2 1 3 2 2 1 3 1 2 2 2 3 1 4 3 4 4 3 1 3 4 5 5 4 4
12 12 13 13 13 11 9 10 11 10 10 10 11 11 9 8 8 7 6 6 7 8 7 7 6 6 5 5 5 4 4 4 5 6 4 5 5 4 3 3 3 3 3 3 4 4 4 3 3 3 2 2 2 2 1 1 1 0 1 2 1 1 0 2 3 2 2 1 1 1 2 1 3 3 2 4 5 1 4 3 3 4 4 4 3
10 11 11 12 12 11 11 11 12 11 11 9 9 9 8 8 8 8 8 7 7 7 8 7 6 5 6 6 6 6 6 5 5 4 5 5 4 5 4 3 3 4 3 3 3 3 3 3 3 3 2 2 2 2 1 1 1 1 1 1 2 1 1 2 3 3 3 2 2 2 1 1 2 2 3 1 5 6 3 3 4 3 3 3 3
10 11 12 13 13 14 14 13 12 13 11 9 9 8 9 9 9 9 7 7 7 7 8 7 7 6 6 5 5 6 7 7 6 6 4 3 4 4 4 4 3 3 3 3 3 3 3 3 3 3 2 2 2 2 2 1 1 1 1 2 1 2 2 1 1 2 3 3 2 2 2 1 1 1 2 1 1 3 7 5 2 5 5 2 3
11 11 12 13 13 13 12 12 13 11 10 11 11 11 10 9 9 8 8 8 7 8 8 7 7 7 7 6 6 6 6 6 5 4 5 4 5 3 4 4 4 3 3 3 3 3 3 3 3 3 3 3 3 2 2 2 2 2 2 1 1 1 1 1 1 1 1 2 4 3 2 2 2 2 1 1 1 2 4 4 7 5 3 3 4
10 13 13 13 13 14 14 13 11 12 11 11 10 9 9 8 9 9 9 8 8 9 8 8 8 7 7 6 7 6 5 3 4 5 5 5 5 4 4 4 4 4 4 3 3 3 3 3 3 4 4 3 3 3 2 2 3 3 2 2 1 1 1 1 1 1 1 1 1 1 3 2 3 2 2 3 2 2 1 5 4 5 6 6 4
9 10 11 13 13 13 11 12 13 10 9 10 9 9 9 10 10 11 10 8 9 10 10 9 8 8 7 8 8 7 6 6 5 4 4 4 5 5 4 4 4 4 3 3 4 4 3 3 4 4 3 3 3 3 3 3 2 2 1 2 2 2 1 1 0 1 1 1 0 0 1 1 1 0 3 2 1 2 3 3 3 1 2 5 5
8 9 10 9 8 8 10 11 11 11 9 10 9 9 10 10 10 11 9 9 9 10 10 9 8 8 7 8 8 7 7 6 7 8 7 7 7 6 4 4 4 3 3 4 4 4 4 4 4 3 3 3 4 3 3 3 2 2 2 2 2 2 2 1 1 1 1 0 1 1 1 1 1 2 2 2 2 2 1 4 4 4 1 2 4
9 9 9 10 11 11 11 10 9 9 11 12 11 11 10 10 11 12 11 10 10 10 11 10 9 8 8 8 7 6 7 7 8 7 7 7 6 5 5 5 4 4 4 4 4 5 5 5 4 4 4 4 4 3 3 3 3 3 3 3 3 3 3 2 1 1 0 1 2 1 1 1 2 2 1 2 1 1 2 2 1 1 2 4 3
7 8 10 11 11 11 12 11 11 11 11 12 11 10 10 10 11 12 12 10 9 9 10 10 9 8 8 8 7 6 7 7 7 7 7 6 6 7 6 6 6 6 6 6 5 4 4 5 5 5 5 4 4 4 4 3 3 4 3 3 4 3 2 3 2 1 1 2 1 2 1 1 2 1 2 2 2 2 1 1 2 2 1 3 3
6 7 10 12 12 12 12 11 11 11 11 11 10 10 9 10 11 12 10 9 9 10 9 10 8 8 8 7 7 6 7 6 6 6 7 7 6 6 6 5 6 6 6 5 5 5 5 4 5 5 4 4 4 4 3 3 3 3 3 3 3 2 3 2 2 2 2 2 1 1 2 2 2 1 1 2 2 2 2 2 2 4 3 1 3
7 7 7 9 11 11 10 10 10 10 11 11 12 10 11 11 12 12 13 12 10 10 10 10 8 7 8 8 7 7 6 6 6 5 5 6 7 7 6 6 6 5 5 4 5 5 5 5 4 4 4 4 4 4 4 3 4 4 3 3 3 2 3 3 2 2 2 2 2 1 1 3 2 1 1 2 2 2 3 2 3 3 2 5 3
7 7 7 8 9 10 11 11 11 11 11 12 12 13 14 12 11 11 10 9 10 10 10 8 7 7 8 8 7 7 7 8 7 7 7 7 6 6 6 6 5 5 4 4 5 5 4 4 4 4 4 4 4 4 4 4 4 3 3 3 3 2 2 3 2 3 2 2 2 1 1 2 2 1 1 1 2 2 2 2 2 2 4 1 3
8 7 7 8 9 10 10 10 11 13 14 13 13 12 12 11 12 12 10 11 11 10 10 9 8 8 7 8 8 8 8 8 7 7 7 6 6 6 5 4 6 5 5 4 5 5 5 5 4 5 4 4 4 3 3 3 3 3 3 3 3 2 3 2 2 2 2 2 2 1 1 2 1 1 2 1 1 2 2 2 2 2 2 1 2
8 8 7 5 6 8 9 10 10 10 10 11 11 10 8 8 8 10 13 13 13 9 9 8 9 7 7 8 8 7 7 7 7 6 6 7 7 6 7 6 5 5 5 5 5 5 4 4 4 4 3 4 4 4 3 3 3 3 3 3 2 2 3 3 2 2 2 2 2 2 1 2 1 2 2 1 1 1 2 3 2 2 2 3 3
7 7 6 5 6 8 9 9 9 8 4 4 7 8 10 10 10 10 9 6 6 6 7 8 8 8 7 7 7 7 7 7 7 6 6 7 7 7 7 6 6 5 5 5 5 5 5 5 4 4 4 3 4 3 3 3 3 3 3 3 3 3 3 4 3 2 2 2 2 3 3 3 2 2 3 2 2 1 1 1 2 2 2 2 3
7 8 8 8 7 5 4 6 5 7 5 3 3 6 7 6 8 9 10 10 10 9 9 8 7 7 8 9 8 8 8 6 7 6 6 6 6 6 6 7 5 6 5 5 5 5 5 5 4 4 4 4 5 4 4 3 4 4 4 4 3 3 4 3 3 4 2 2 2 3 4 3 2 3 3 3 2 2 1 0 1 2 2 2 3
8 7 4 8 9 10 10 10 5 3 6 8 7 6 6 7 7 7 7 7 8 9 9 8 8 8 10 9 9 8 7 6 7 6 6 6 6 5 6 5 6 6 6 6 6 5 4 5 4 5 5 5 5 5 4 4 4 4 4 2 3 4 4 4 3 4 4 3 2 3 4 4 2 3 3 3 2 2 1 2 2 2 2 2 3
4 9 13 11 12 6 5 7 9 8 7 6 5 7 8 8 8 9 9 8 8 8 7 7 8 8 9 8 8 7 7 8 8 7 7 6 6 6 5 6 6 5 5 6 6 6 6 6 5 5 5 5 5 5 4 5 5 5 5 4 4 4 5 5 5 5 5 3 3 3 5 4 2 3 3 3 2 2 1 2 3 2 3 2 3
8 9 9 10 10 11 9 10 9 9 10 10 9 8 7 6 4 4 7 8 8 7 7 6 7 8 7 6 7 7 8 8 8 7 8 7 6 6 6 6 6 5 5 5 6 6 6 6 6 6 6 6 6 5 5 5 6 6 6 6 6 5 5 5 6 6 5 4 4 4 5 4 3 3 4 3 2 2 2 3 3 3 3 4 3
8 9 8 8 8 10 11 9 8 9 8 8 7 7 6 6 2 5 4 5 6 7 8 8 8 8 7 8 8 7 7 8 8 6 7 7 7 6 6 7 6 6 5 5 5 5 5 6 6 7 7 7 7 7 7 6 6 6 7 6 6 6 6 6 6 6 5 5 5 5 6 4 4 4 4 4 4 4 3 3 4 4 3 3 2
10 10 10 11 12 11 10 10 10 8 4 2 1 3 8 11 12 8 7 7 7 7 9 9 7 8 7 8 8 7 8 8 8 7 7 6 6 7 7 6 6 7 6 5 6 5 6 6 7 7 7 7 7 7 8 8 7 7 6 6 6 6 6 6 6 6 6 5 5 6 6 5 5 5 5 5 4 6 4 4 5 5 4 3 4
11 10 7 6 5 4 5 5 5 5 5 6 8 7 7 8 7 4 4 6 7 7 7 7 7 9 8 8 8 8 7 7 7 6 5 5 6 6 6 6 5 6 6 6 6 6 6 6 7 6 7 7 7 7 7 8 7 7 7 7 7 7 6 6 6 6 6 6 6 6 6 6 6 6 6 6 6 6 4 6 6 5 4 3 4
6 5 5 4 4 5 6 6 5 5 5 5 5 4 3 3 6 6 5 6 6 5 5 6 7 7 6 6 6 5 5 4 4 3 4 5 5 5 6 6 5 6 6 7 6 7 6 6 7 7 7 6 6 6 6 7 7 7 7 7 7 7 7 6 6 6 6 6 6 6 6 6 7 7 7 6 6 6 5 6 5 4 4 4 4
6 3 2 3 5 5 6 6 5 5 4 3 3 4 5 3 2 4 5 5 3 4 5 4 4 4 2 2 3 4 5 4 3 2 3 4 5 5 5 5 5 6 5 6 6 6 6 6 6 7 7 6 6 6 6 6 7 7 6 7 7 7 7 7 6 6 6 7 6 6 7 7 7 10 11 10 8 6 5 6 6 4 4 4 4
7 5 5 5 7 9 10 9 6 5 4 4 4 5 2 3 5 4 3 4 7 7 7 5 4 2 2 5 7 5 3 2 2 3 4 5 4 4 4 5 5 6 6 5 6 6 6 7 7 6 6 5 6 5 8 12 11 7 7 6 6 6 7 6 6 6 6 6 7 7 7 11 12 13 12 13 13 12 11 9 8 6 6 5 5
7 8 8 8 9 11 12 12 10 9 9 7 6 7 5 4 3 3 1 2 5 5 5 4 2 5 1 4 4 3 5 3 3 4 3 1 4 5 5 4 4 5 5 4 4 6 6 5 6 6 6 6 5 6 12 13 14 14 8 7 7 7 6 6 6 6 7 6 6 6 6 8 10 11 11 13 12 13 13 13 14 13 10 7 6
7 8 9 10 11 11 11 11 9 8 8 9 9 9 9 7 7 7 6 8 9 8 7 5 4 1 1 6 5 5 3 2 3 4 4 3 2 0 5 6 5 5 5 4 5 6 6 5 5 5 6 6 6 9 12 12 13 13 11 8 6 5 5 6 6 7 7 6 7 6 6 6 6 8 8 8 9 11 12 13 13 14 14 14 12
8 9 10 11 11 11 11 10 9 10 10 10 10 11 11 9 10 9 7 8 8 9 9 8 6 5 5 5 4 4 2 1 2 4 4 4 3 3 1 5 8 5 4 5 6 5 6 5 5 6 6 6 6 9 12 12 13 13 14 11 6 6 6 6 7 7 7 7 6 6 6 5 6 10 9 7 7 8 10 12 12 12 13 14 14
8 9 9 9 10 10 10 10 10 10 11 10 11 11 10 10 10 10 10 8 7 8 8 8 7 7 7 7 7 6 5 3 2 2 2 4 5 4 4 6 5 7 5 5 5 5 5 5 5 6 5 4 5 5 8 10 11 13 13 10 7 7 7 7 7 7 7 7 8 7 6 6 5 5 6 6 6 7 7 6 6 6 7 9 11
10 10 9 11 11 10 10 9 8 8 8 9 10 10 10 10 10 11 11 10 10 9 9 9 9 9 9 9 8 7 8 7 6 6 6 6 5 4 1 2 4 5 5 5 5 5 5 5 4 4 4 4 3 2 3 6 8 11 11 9 6 6 6 7 7 7 7 7 6 5 6 7 7 6 6 6 6 6 6 5 6 7 7 7 7
7 9 9 9 9 11 10 8 6 7 7 8 9 7 9 9 9 10 10 10 9 9 9 9 10 9 9 8 9 9 9 9 8 8 9 9 8 7 7 6 5 4 4 5 3 3 3 3 3 3 3 4 3 4 5 5 6 8 8 5 5 6 6 5 6 5 5 5 5 5 5 6 6 7 8 8 7 5 5 6 7 7 7 7 7
8 9 9 9 8 9 9 9 9 8 8 8 7 8 9 9 9 9 10 10 10 10 9 9 9 9 9 9 8 8 8 8 8 9 9 8 8 7 6 6 6 6 7 4 2 0 1 1 1 1 1 2 2 3 2 4 7 7 1 1 2 3 3 4 5 4 4 4 4 4 5 5 5 5 6 8 7 3 4 6 7 8 7 8 10
10 9 9 8 8 8 7 8 10 9 7 6 7 8 10 11 10 9 9 9 10 8 7 8 8 8 7 8 8 8 8 7 7 7 7 6 5 4 4 6 7 7 7 8 5 3 3 2 2 1 1 2 2 1 1 1 2 2 2 1 0 1 2 2 2 2 2 2 3 6 5 3 3 3 5 8 6 3 3 4 5 7 9 9 10
7 9 10 9 9 9 9 10 10 10 7 6 8 10 11 10 9 9 9 10 8 7 6 6 6 7 7 7 6 6 6 6 5 4 4 3 3 3 2 3 5 5 6 4 5 4 3 2 4 3 2 2 2 2 2 1 0 1 1 1 1 1 2 2 1 2 1 1 0 0 2 2 3 4 7 5 6 3 3 4 5 6 8 9 9
9 8 9 8 8 12 11 11 10 7 5 6 8 10 11 9 8 7 9 8 7 6 4 4 5 7 7 6 6 5 5 6 6 5 4 3 2 3 5 3 3 4 5 4 4 3 2 4 3 4 4 5 5 5 4 2 1 1 1 1 2 2 3 3 2 2 3 3 2 2 1 5 7 6 7 8 7 5 4 5 5 6 7 9 7
10 9 8 10 10 10 9 8 6 5 6 5 8 10 9 8 8 10 8 6 5 5 6 7 7 7 7 7 7 7 8 8 7 5 3 4 6 6 4 2 2 5 4 3 2 0 2 2 5 6 6 7 7 7 8 12 9 5 1 0 1 3 3 3 3 3 2 3 4 5 4 5 7 7 7 8 8 6 4 4 5 7 8 8 9
8 9 10 11 10 10 10 9 7 7 6 7 9 10 8 8 9 9 7 6 6 7 6 7 8 8 7 7 6 6 5 4 5 6 6 7 6 4 5 5 5 4 4 5 5 2 5 7 6 8 8 9 9 13 8 11 13 10 6 2 2 3 4 3 3 3 4 4 3 3 4 4 6 7 9 9 10 8 7 5 8 12 12 11 9
10 9 8 10 10 10 9 8 6 7 7 7 10 10 8 8 10 7 5 5 6 7 8 8 8 8 7 7 7 7 7 5 6 6 7 7 6 6 7 7 6 6 6 7 7 7 6 6 6 5 5 4 5 7 15 9 8 9 9 6 4 3 5 3 2 2 2 2 2 3 4 6 8 10 10 10 11 11 8 7 11 10 10 9 8
8 8 9 11 11 8 8 8 7 7 7 7 9 9 8 9 8 5 5 5 7 7 8 8 8 7 8 7 6 6 7 7 7 6 7 7 7 6 6 6 6 6 6 7 7 6 6 6 6 6 6 5 4 4 6 2 5 7 9 8 7 5 4 3 2 1 2 3 3 3 5 9 11 12 12 11 12 11 9 12 12 12 9 8 6
8 8 7 8 10 10 8 8 7 8 7 7 7 10 9 9 5 5 6 6 6 7 7 7 7 7 6 5 6 6 6 6 6 6 6 6 6 6 6 6 6 6 6 6 6 6 6 5 5 5 6 6 6 4 4 5 8 8 9 8 5 4 2 2 3 3 3 3 5 9 10 11 11 13 13 11 9 9 12 11 11 11 9 5 6
8 7 7 8 9 9 10 9 8 7 7 7 7 8 10 5 3 5 5 6 6 7 6 6 6 6 6 6 6 5 6 5 5 5 5 5 5 5 5 5 6 6 5 5 6 5 5 5 5 4 4 4 5 4 5 4 5 6 5 6 5 4 4 3 3 4 6 8 9 9 10 10 10 9 7 5 5 6 11 13 13 11 5 5 5
8 6 7 8 9 9 8 8 8 6 6 7 8 7 6 5 5 5 5 6 6 6 6 6 6 5 5 6 7 5 6 5 5 5 4 5 5 5 5 5 5 5 5 5 5 5 5 5 5 5 5 5 4 4 4 4 4 4 3 3 3 2 2 3 2 3 4 5 6 6 6 9 9 11 10 9 9 9 7 6 5 4 4 4 4
6 6 8 8 9 9 8 8 7 5 6 6 7 6 6 6 5 4 5 5 6 5 5 5 6 5 4 5 5 8 7 5 5 5 5 5 5 4 4 4 4 4 4 4 4 4 4 5 4 4 4 4 4 5 4 6 6 4 4 3 2 2 2 2 2 3 4 4 4 6 5 3 3 3 4 3 3 4 5 5 5 5 5 5 5
8 6 8 9 8 9 8 8 7 5 6 7 7 6 5 7 6 5 6 6 5 5 5 5 5 5 5 7 5 4 4 4 4 5 4 3 3 4 4 3 2 1 2 3 3 3 4 3 3 3 4 4 5 5 5 6 4 2 4 5 5 3 2 1 1 3 3 2 3 4 5 6 6 6 6 6 7 7 7 8 9 9 9 7 7
6 6 8 8 8 9 9 8 7 6 6 7 6 5 5 5 5 5 5 5 4 4 5 5 4 5 5 6 5 5 4 4 4 3 4 4 4 1 2 3 4 7 2 4 3 2 3 2 3 3 2 3 4 5 9 11 7 6 7 8 8 7 6 5 4 4 2 2 5 5 5 5 5 5 6 7 7 7 7 8 8 9 8 8 9
7 8 7 8 8 7 8 8 7 6 6 6 6 5 5 4 5 5 6 5 4 3 3 3 4 4 6 5 5 4 5 4 4 4 3 3 4 6 3 4 4 6 8 8 3 5 6 7 4 3 4 6 8 11 10 8 9 8 6 6 6 6 6 7 7 2 2 3 4 4 4 5 5 5 6 5 6 6 7 7 8 8 7 8 8
Wind_Direction
189 186 182 180 178 172 162 156 162 167 171 175 175 173 169 166 154 156 157 150 154 155 161 160 159 153 134 175 184 184 191 185 194 195 185 191 183 177 173 166 154 145 147 150 159 153 141 138 129 111 108 102 106 110 273 21 65 82 356 334 6 6 335 7 24 51 42 357 347 344 325 240 241 202 210 210 217 224 221 237 240 253 251 248 249
173 178 181 175 173 168 159 159 162 169 180 178 182 179 174 167 163 153 151 156 163 166 168 174 177 178 155 175 161 161 182 180 193 196 186 168 172 182 182 163 154 155 145 151 150 149 149 147 149 150 137 116 121 132 28 37 31 39 16 355 46 16 326 340 338 4 30 66 344 332 333 323 324 297 265 260 238 228 221 227 228 242 252 249 246
182 184 174 177 174 169 166 170 178 181 175 181 184 175 173 173 166 153 159 162 169 168 162 173 179 178 168 164 166 140 187 201 179 151 159 157 173 186 185 168 152 152 152 149 149 163 161 157 165 150 136 141 117 25 33 18 28 38 38 35 335 21 306 333 2 22 102 183 174 22 359 356 334 355 317 285 273 252 241 242 238 242 249 245 235
189 182 178 177 174 172 170 174 179 175 177 180 177 179 176 178 171 157 162 163 167 174 168 169 172 176 165 157 160 148 169 160 125 94 133 139 173 181 201 175 166 158 162 154 142 158 163 169 150 150 135 126 121 121 27 21 23 30 26 5 29 357 5 334 16 3 121 55 5 1 281 51 351 336 332 306 305 276 238 245 247 252 259 258 216
190 182 178 176 175 178 178 177 169 176 180 181 182 180 182 180 178 168 162 166 168 172 166 159 155 154 136 100 109 77 65 97 117 158 170 186 157 178 203 181 177 163 163 158 155 163 164 155 161 144 130 122 116 123 140 29 77 37 91 5 17 83 359 352 311 0 12 75 137 29 359 21 199 268 329 284 349 3 311 278 256 258 263 251 235
185 185 181 179 179 178 174 167 173 179 183 187 185 183 177 174 170 168 161 163 166 169 160 157 163 162 155 146 146 151 137 149 183 196 189 185 198 177 172 181 176 169 165 162 158 151 167 169 152 147 138 137 138 138 125 100 62 10 226 225 226 260 165 47 346 321 21 62 116 107 155 180 290 295 28 327 321 242 303 290 269 276 272 263 238
189 181 177 176 179 175 175 176 179 180 189 183 181 181 177 168 169 171 172 171 167 162 157 157 155 166 176 174 171 174 173 204 198 199 193 203 178 170 180 170 180 176 174 165 158 160 154 159 160 160 146 132 161 132 162 238 280 278 264 206 238 171 149 34 353 314 344 49 22 18 309 323 183 13 343 282 351 323 334 338 321 322 314 282 262
183 184 180 179 177 177 180 183 180 186 177 174 180 177 175 172 170 174 173 172 171 159 161 163 162 172 175 179 177 181 187 200 194 200 194 165 180 182 163 179 175 190 177 169 160 160 154 156 152 146 155 164 193 193 209 202 250 271 265 230 180 200 178 169 326 14 67 311 17 24 2 61 37 14 165 29 254 314 322 322 246 339 341 333 301
181 182 182 180 179 182 181 183 188 173 167 177 183 182 176 172 172 170 173 170 170 165 164 169 166 172 177 175 183 199 196 198 187 176 173 167 178 169 177 184 181 193 188 175 179 175 177 159 154 159 175 190 209 203 198 182 216 257 272 227 204 131 123 110 102 128 98 38 349 356 354 30 33 43 75 125 106 341 295 333 328 337 350 2 348
189 183 182 183 182 182 184 182 174 180 177 180 181 169 169 167 172 173 177 174 170 170 169 171 170 167 172 178 179 189 189 155 158 175 175 166 184 183 185 185 195 190 192 181 185 195 183 159 163 180 193 185 203 202 191 197 216 229 239 218 171 134 135 157 165 184 183 186 122 157 8 334 34 23 24 26 63 82 312 313 327 344 349 321 326
186 187 186 185 184 180 169 177 184 176 171 170 173 174 169 172 175 178 182 174 171 172 170 172 170 172 176 176 179 177 176 162 160 173 157 160 183 187 185 197 192 204 185 190 189 187 190 184 182 194 188 191 199 192 209 222 220 228 211 181 171 161 170 183 308 81 113 107 167 232 298 72 83 100 300 334 333 306 346 312 312 275 276 319 316
179 180 184 180 174 176 175 178 175 175 167 172 176 170 174 176 176 179 181 179 176 173 173 173 167 175 176 174 177 178 170 172 179 181 182 186 185 184 183 173 200 205 207 193 196 191 186 195 200 189 191 187 206 201 207 215 216 197 181 188 175 151 161 161 146 19 53 144 173 213 231 215 183 203 235 206 190 245 192 291 305 320 331 228 290
175 177 176 175 178 177 179 179 172 168 177 178 176 176 175 178 179 178 185 184 182 175 177 174 171 173 172 176 179 172 176 179 184 185 186 186 186 178 169 190 185 196 207 204 211 194 185 187 191 189 195 200 197 193 210 201 202 193 191 184 179 200 198 185 190 260 221 322 312 233 230 221 256 233 205 215 198 137 174 314 290 123 290 312 315
173 175 178 179 180 183 180 174 176 181 180 179 176 175 177 181 182 184 187 185 183 181 179 175 179 175 173 173 176 172 181 184 188 188 186 192 185 187 186 185 186 200 193 207 201 197 198 199 191 194 198 195 190 198 200 199 194 201 190 194 209 208 169 179 185 203 213 231 222 301 311 301 275 238 215 182 175 160 151 222 293 305 223 295 298
169 177 181 182 183 182 178 177 179 180 180 179 178 179 178 182 183 189 184 187 184 185 181 182 179 176 173 174 175 175 182 186 194 193 184 184 189 188 195 184 189 199 201 204 188 193 203 200 198 191 194 197 192 193 189 191 195 194 195 206 214 186 192 182 201 192 260 291 263 227 299 299 292 272 203 228 179 200 191 180 144 356 341 325 332
173 173 184 187 185 181 177 178 179 180 180 182 181 176 182 189 188 188 186 185 188 186 187 185 183 174 171 172 179 180 181 187 192 192 190 189 186 191 193 192 203 199 204 183 199 187 193 201 198 204 193 195 199 203 200 193 194 195 201 193 218 188 187 201 211 194 230 241 257 228 266 298 299 291 252 240 210 199 194 155 142 129 47 339 332
157 163 177 187 186 182 179 180 180 180 181 185 183 183 187 185 185 188 187 186 188 191 189 186 179 174 178 176 174 177 178 180 187 191 188 189 186 195 191 195 192 196 196 193 192 195 194 190 195 203 199 200 201 209 205 205 197 203 201 202 222 196 177 213 190 210 230 235 251 258 260 281 299 290 268 246 234 183 188 190 181 180 154 77 327
149 162 180 184 181 179 180 185 184 184 186 186 188 189 188 185 184 181 181 188 196 191 186 182 180 182 180 180 180 180 180 182 186 191 187 178 187 193 189 178 196 196 192 193 187 191 193 200 186 202 204 197 206 208 209 208 194 211 214 214 213 169 201 203 216 210 226 218 244 229 222 272 272 306 312 294 193 205 180 189 192 191 156 184 186
150 164 177 152 145 169 177 183 185 191 191 189 187 178 174 180 183 185 189 193 192 191 187 183 181 184 183 185 181 182 183 181 185 189 180 183 185 184 189 201 185 184 190 192 186 189 190 200 192 198 196 207 202 211 203 202 197 215 210 224 210 187 208 241 231 212 237 223 241 266 242 267 262 301 304 303 286 183 192 169 176 152 178 152 164
152 171 170 125 139 163 170 169 172 181 173 199 183 177 180 180 177 189 193 183 179 191 189 188 188 183 180 177 187 185 182 180 181 177 181 190 191 182 189 183 194 179 190 190 191 192 190 195 201 198 200 206 208 210 201 199 196 220 217 214 210 195 222 241 259 234 262 256 266 282 279 282 298 305 305 313 293 277 188 200 163 163 168 184 153
163 181 172 149 133 106 79 58 55 103 113 250 210 195 180 164 180 184 185 183 181 189 189 194 184 189 175 182 185 187 187 178 171 177 184 195 193 190 189 196 171 189 179 182 194 200 195 200 205 203 205 204 208 209 193 193 196 217 227 230 222 204 224 242 246 271 250 245 256 266 276 273 273 289 290 299 301 294 298 211 184 161 180 166 174
175 187 67 52 47 53 76 83 64 95 171 182 172 154 155 169 178 180 182 191 187 189 194 190 189 187 186 186 187 185 182 176 174 173 183 187 192 192 190 174 186 193 176 187 190 190 189 193 199 205 204 208 211 211 194 185 203 210 231 223 238 235 239 244 237 254 253 232 231 256 268 273 247 256 274 277 280 290 276 274 232 224 227 207 200
109 72 72 81 94 84 75 120 145 158 170 178 163 168 171 175 176 185 183 184 184 195 197 190 190 190 195 190 181 180 178 183 183 177 185 185 188 192 185 183 191 185 185 188 188 185 192 191 201 208 202 201 206 209 195 192 201 205 214 221 221 219 229 242 241 243 243 234 238 237 260 261 252 267 262 269 270 271 254 257 269 232 245 236 201
86 78 86 120 141 155 159 163 174 186 191 183 175 175 170 156 164 199 193 178 174 178 181 189 194 197 193 184 190 186 182 186 192 187 185 186 184 188 185 192 195 189 189 195 191 190 188 193 199 203 198 200 191 196 193 198 203 203 209 219 211 207 214 226 233 240 241 227 231 241 251 252 254 254 265 267 257 244 253 261 266 257 227 245 221
105 110 131 151 158 165 174 167 170 212 205 192 178 156 132 112 190 188 185 172 187 178 179 188 193 196 189 189 194 190 195 200 205 197 191 182 184 186 188 195 190 197 200 188 194 189 192 191 199 202 201 198 199 194 194 200 207 207 210 217 218 212 216 220 225 229 239 230 229 233 247 241 232 248 258 256 252 253 240 237 251 249 242 244 230
132 141 159 172 184 182 173 168 182 188 173 100 114 189 178 182 202 184 167 160 181 188 192 186 182 187 196 197 194 190 199 205 210 209 202 193 187 190 192 197 193 197 195 195 196 188 190 198 205 210 209 209 206 199 201 204 206 207 211 218 220 221 225 224 226 227 228 227 233 232 240 237 236 232 248 251 242 246 239 240 247 247 245 253 256
147 162 181 183 190 167 139 118 126 122 124 163 186 198 196 197 201 202 166 170 186 187 184 178 182 193 194 200 197 199 198 201 208 212 209 199 200 198 197 200 198 202 195 198 198 197 203 200 208 206 213 215 213 208 207 207 206 204 208 212 220 225 228 227 230 233 235 232 233 235 234 231 236 235 242 243 246 248 241 246 234 243 237 244 261
134 162 184 163 137 130 128 124 108 118 133 156 170 152 142 156 175 180 178 179 185 179 163 174 185 195 200 205 203 194 195 202 200 207 213 216 211 209 210 207 193 205 210 210 204 201 203 197 205 205 212 213 216 216 215 213 209 203 202 210 214 222 226 230 234 231 233 238 235 236 235 231 230 234 235 242 232 252 250 263 254 233 234 231 252
123 142 81 54 87 114 125 119 111 118 125 135 130 94 80 112 140 176 177 191 132 86 69 60 47 49 51 60 62 49 39 22 352 272 227 219 223 225 222 212 205 210 211 216 214 207 205 204 209 211 209 205 207 215 209 209 210 212 207 214 213 215 221 227 232 234 229 233 239 242 242 238 232 238 233 238 236 224 231 257 265 227 237 234 251
104 97 67 59 77 81 76 71 75 92 72 60 75 82 101 192 176 195 202 78 75 72 63 54 60 314 32 65 73 54 47 50 77 59 11 336 296 258 232 223 218 213 215 211 210 210 204 206 208 210 209 205 214 216 221 217 213 210 205 217 216 217 220 225 232 238 241 232 238 239 245 248 247 247 246 245 245 244 240 238 254 250 237 231 235
82 94 92 79 72 72 72 69 69 66 59 42 51 83 80 57 53 100 13 67 126 131 120 130 178 246 235 78 69 189 212 183 153 135 132 96 337 322 288 251 233 227 219 214 203 201 201 196 198 200 202 209 216 221 223 221 220 222 219 213 214 222 215 219 227 234 250 247 242 239 244 251 253 255 255 254 251 247 246 244 247 249 244 231 239
79 79 73 65 62 63 68 68 59 58 60 64 55 52 54 44 47 58 49 67 81 99 111 127 200 203 121 150 196 230 227 170 166 148 150 169 176 230 299 280 256 233 223 211 217 219 220 210 200 199 203 210 215 223 222 223 225 227 226 229 224 226 215 208 214 220 230 236 243 239 236 233 229 233 239 253 255 254 251 249 246 247 250 246 237
85 78 75 71 69 68 69 69 69 64 65 63 67 65 58 53 47 38 41 45 77 89 92 90 87 83 71 109 141 141 131 128 112 128 140 156 165 157 139 310 286 255 215 210 217 219 221 217 214 210 214 216 225 224 223 223 223 224 223 220 231 225 224 224 217 220 224 231 234 238 248 236 240 240 241 245 247 259 258 255 256 258 257 252 248
96 90 84 79 74 70 69 70 74 76 73 74 65 63 62 61 60 52 41 23 32 66 71 81 76 68 68 65 67 76 77 51 43 61 113 136 153 170 174 181 231 282 261 217 211 215 216 214 211 211 221 223 225 247 237 234 231 228 226 212 221 221 225 230 227 221 223 225 230 236 241 255 243 238 238 241 244 252 265 272 268 256 255 260 254
101 92 89 88 86 76 67 55 47 53 68 73 74 75 74 62 63 63 53 42 21 32 48 51 55 51 53 55 57 56 54 44 40 45 47 34 23 27 9 277 227 209 228 238 211 207 213 212 211 208 214 221 221 194 242 242 236 229 228 209 222 225 225 232 233 230 233 232 237 231 236 247 262 257 245 235 243 249 256 267 273 270 266 267 272
96 96 86 87 94 100 95 79 53 46 49 68 78 85 81 74 59 59 60 57 48 42 37 41 51 51 53 53 62 60 55 47 40 40 44 42 30 23 5 338 316 288 248 247 239 204 204 210 215 217 223 227 219 203 232 248 233 229 202 192 206 215 224 235 240 243 240 239 236 234 235 249 254 265 270 269 272 297 289 282 279 281 283 275 268
93 91 88 87 86 91 94 94 90 82 72 61 71 72 74 68 58 55 58 56 56 47 43 42 45 43 44 45 53 63 59 55 49 44 34 32 22 15 5 344 331 312 302 278 274 231 150 180 184 176 254 303 322 24 1 337 349 359 25 325 219 229 234 235 245 245 248 251 248 237 241 264 277 283 319 346 356 339 278 279 283 287 288 291 284
101 93 90 87 84 79 72 80 81 65 57 68 70 77 74 69 64 55 56 56 56 52 46 49 48 44 44 48 45 43 50 54 50 51 42 23 10 6 3 352 339 327 312 315 320 353 357 9 2 318 265 277 290 347 243 111 43 52 350 30 83 233 258 266 292 305 290 287 289 301 299 284 285 292 1 3 6 329 283 269 269 273 278 278 278
88 104 101 91 85 81 76 65 61 56 37 51 66 68 66 62 58 54 52 47 42 38 39 51 53 48 38 36 44 53 48 47 50 41 39 25 347 345 354 0 329 319 309 319 332 352 339 2 11 357 351 357 2 33 85 147 123 170 194 344 25 333 303 303 320 311 316 264 250 9 345 1 353 8 16 12 22 11 303 295 285 282 278 276 275
87 73 83 85 86 83 69 65 62 56 47 61 68 67 64 60 52 52 49 42 29 20 17 42 54 62 57 49 38 36 42 49 43 40 38 44 0 12 11 13 325 298 291 288 285 275 342 39 46 3 10 6 18 17 35 29 263 297 6 338 341 330 308 314 323 318 330 341 357 9 44 61 62 45 19 12 3 19 332 305 294 277 274 273 291
113 106 99 86 79 80 82 78 75 73 62 64 73 69 62 58 53 49 37 21 4 11 30 35 40 44 46 47 46 38 29 30 29 34 27 36 35 21 16 56 223 248 245 258 272 353 90 49 48 42 29 28 25 33 27 18 2 358 18 42 292 290 300 304 307 316 329 334 347 359 357 42 29 10 351 332 315 299 278 266 254 257 250 276 303
92 102 100 97 92 89 85 71 60 65 65 67 72 70 65 60 55 42 15 345 10 24 37 43 39 34 32 30 30 31 40 34 26 28 34 39 25 18 26 32 25 17 35 64 35 55 83 64 50 49 26 21 23 41 31 26 15 25 41 116 355 15 14 319 325 329 346 3 4 351 336 352 359 334 318 304 294 283 261 248 246 240 258 275 275
106 89 80 92 88 81 74 74 61 55 56 68 76 72 59 54 52 26 360 18 25 27 31 37 38 36 28 24 21 20 21 17 23 25 31 31 20 19 21 24 24 27 35 39 38 35 45 50 43 47 45 37 19 39 45 20 16 26 44 47 26 7 352 30 27 28 4 325 315 316 308 318 318 307 302 298 297 293 285 255 260 263 259 264 271
78 92 103 95 93 82 75 59 55 57 59 63 79 78 64 57 36 356 21 38 39 36 35 32 29 27 26 20 18 19 19 19 17 18 27 29 22 17 21 21 16 23 25 34 32 29 38 43 31 13 14 19 30 46 96 55 43 65 66 63 53 35 5 21 11 347 331 309 304 303 303 310 308 304 302 300 295 288 271 278 284 282 273 261 252
98 94 90 92 100 98 90 72 59 62 60 64 73 84 73 60 12 10 25 38 41 45 42 29 19 15 16 10 16 29 24 16 8 10 21 17 19 14 22 14 17 19 21 25 17 20 26 21 22 23 5 359 1 21 42 28 37 71 71 63 63 68 38 351 350 328 328 313 306 303 306 307 302 300 298 295 289 283 282 280 279 279 273 261 254
94 92 88 94 92 89 88 84 68 66 70 69 65 74 77 66 13 27 26 35 41 42 42 32 19 8 -0 357 9 23 32 21 14 8 11 12 18 15 17 14 18 18 16 18 8 13 14 7 10 6 3 349 350 -0 7 21 35 31 46 35 19 11 12 349 312 290 293 300 301 300 293 292 296 291 296 302 301 295 296 292 283 276 258 247 260
118 127 117 103 100 96 93 91 86 66 78 73 72 65 77 73 56 35 31 34 46 44 35 25 17 5 357 356 1 5 15 7 14 8 10 11 11 19 19 24 21 14 12 10 2 7 6 2 3 352 347 344 344 350 349 5 15 14 20 10 1 355 349 341 324 325 336 327 323 326 315 292 277 279 275 268 270 283 286 282 280 275 271 268 263
134 125 109 106 107 113 109 102 96 88 83 83 77 76 67 62 55 49 49 52 48 42 36 16 11 1 5 8 4 6 10 354 359 6 8 360 8 13 18 17 10 12 10 1 357 359 356 357 338 334 335 341 339 338 358 11 4 350 337 333 327 321 328 343 325 339 333 320 319 308 305 318 322 328 330 341 329 301 291 293 301 298 295 291 274
142 136 129 130 132 122 120 113 116 121 108 94 91 89 84 80 66 47 53 56 53 43 34 18 11 8 9 16 9 6 359 357 349 353 356 330 343 353 353 339 314 94 15 345 349 326 351 341 320 321 334 334 332 339 353 32 13 322 309 326 327 319 324 292 15 5 317 320 0 15 18 11 16 11 7 7 5 359 358 349 348 350 343 343 353
142 136 136 132 127 127 126 125 134 137 120 112 105 93 84 85 84 76 70 66 49 47 40 14 7 10 10 16 8 4 356 -0 0 353 351 339 10 30 282 332 337 338 53 192 260 315 324 305 300 276 218 289 310 305 318 331 344 322 302 268 266 277 285 284 296 301 240 38 38 30 25 15 8 13 16 12 3 -0 356 347 343 342 343 352 356
152 140 138 131 137 134 128 130 146 144 125 124 120 119 105 85 89 88 90 83 58 49 37 20 12 -0 14 21 13 7 10 3 359 356 344 351 332 340 318 274 269 299 320 327 266 218 211 243 272 308 301 264 260 279 299 322 331 325 330 314 286 277 280 285 288 281 162 59 57 43 34 28 22 23 14 2 356 352 349 341 336 333 333 340 343